Ireland West Airport Knock, Ireland

1:46 AM IST on April 24, 2017 (GMT +0100)
Connaught

Weather History for EIKN - September, 2013

Change the Weather History Date:

Saturday, September 7, 2013

  Actual Average Record
Temperature  
Mean Temperature 48 °F -  
Max Temperature 50 °F - - ()
Min Temperature 45 °F - - ()
Degree Days  
Heating Degree Days 18    
Moisture  
Dew Point 44 °F    
Average Humidity 88    
Maximum Humidity 100    
Minimum Humidity 76    
Precipitation  
Precipitation 0.08 in - - ()
Sea Level Pressure  
Sea Level Pressure 29.90 in    
Wind  
Wind Speed 12 mph ()    
Max Wind Speed 18 mph    
Max Gust Speed 30 mph    
Visibility 6.8 miles    
Events Rain    
T = Trace of Precipitation, MM = Missing Value Source: Averaged Metar Reports

Daily Weather History Graph

Daily Weather History Graph

Search for Another Location

Airport or City:

Trip Planner

Search our weather history database for the weather conditions in past years. The results will help you decide how hot, cold, wet, or windy it might be!

Date:

Astronomy

Sep. 07, 2013 Rise Set
Actual Time 6:54 AM IST 8:10 PM IST
Civil Twilight 6:18 AM IST 8:47 PM IST
Nautical Twilight 5:33 AM IST 9:31 PM IST
Astronomical Twilight 4:44 AM IST 10:19 PM IST
Moon 9:21 AM IST (9/7) 8:31 PM IST (9/7)
Length of Visible Light 14h 28m
Length of Day
13h 16m
Waxing Crescent, 4% of the Moon is Illuminated
Sep 7
Waxing Crescent
Sep 12
First Quarter
Sep 19
Full
Sep 27
Last Quarter
Oct 5
New

Hourly Weather History & Observations

Time (IST) Temp. Windchill Dew Point Humidity Pressure Visibility Wind Dir Wind Speed Gust Speed Precip Events Conditions
1:00 AM 46 °F - 44 °F 90% 30.00 in - NW 8.9 mph - -  
6:00 AM 46.4 °F 40.1 °F 44.6 °F 93% 29.95 in 6.2 mi NNW 15.0 mph - N/A Rain Light Rain Showers
7:00 AM 47 °F - 42 °F 76% 29.96 in 12 mi NNW 13.4 mph - - Rain Light Rain Showers
7:00 AM 46.4 °F 40.4 °F 42.8 °F 87% 29.92 in 6.2 mi NNW 13.8 mph - N/A   Mostly Cloudy
7:30 AM 46.4 °F 41.1 °F 42.8 °F 87% 29.92 in 6.2 mi NNW 11.5 mph - N/A   Mostly Cloudy
8:00 AM 46.4 °F 41.5 °F 42.8 °F 87% 29.92 in 6.2 mi NNW 10.4 mph - N/A   Mostly Cloudy
8:30 AM 48.2 °F - 42.8 °F 82% 29.92 in 6.2 mi NNW 10.4 mph - N/A   Mostly Cloudy
9:00 AM 46.4 °F 41.9 °F 44.6 °F 93% 29.92 in 6.2 mi North 9.2 mph - N/A   Mostly Cloudy
9:30 AM 46.4 °F 40.1 °F 42.8 °F 87% 29.95 in 6.2 mi NNW 15.0 mph - N/A Rain Light Rain
10:00 AM 48.2 °F - 42.8 °F 82% 29.92 in 6.2 mi NNW 17.3 mph - N/A Rain Light Rain
10:30 AM 48.2 °F - 42.8 °F 82% 29.92 in 6.2 mi NNW 11.5 mph - N/A Rain Light Rain
11:00 AM 46.4 °F 40.1 °F 44.6 °F 93% 29.92 in 6.2 mi NNW 15.0 mph - N/A Rain Light Rain
11:30 AM 46.4 °F 40.7 °F 44.6 °F 93% 29.92 in 6.2 mi WNW 12.7 mph - N/A Rain Light Rain
12:00 PM 46.4 °F 41.1 °F 44.6 °F 93% 29.92 in 6.2 mi NW 11.5 mph - N/A Rain Light Rain
12:30 PM 46.4 °F 40.7 °F 44.6 °F 93% 29.92 in 6.2 mi WNW 12.7 mph - N/A   Overcast
1:00 PM 47 °F - 46 °F 93% 29.94 in 14 mi WNW 13.4 mph - - Rain Light Rain
1:00 PM 46.4 °F 40.4 °F 46.4 °F 100% 29.92 in 6.2 mi WNW 13.8 mph - N/A   Mostly Cloudy
1:30 PM 48.2 °F - 42.8 °F 82% 29.92 in 6.2 mi NW 15.0 mph 29.9 mph N/A Rain Light Rain
2:00 PM 48.2 °F - 44.6 °F 87% 29.92 in 6.2 mi NW 13.8 mph - N/A Rain Light Rain
2:30 PM 48.2 °F - 44.6 °F 87% 29.92 in 6.2 mi NW 13.8 mph - N/A Rain Light Rain
3:00 PM 48.2 °F - 44.6 °F 87% 29.89 in 6.2 mi NNW 18.4 mph - N/A   Mostly Cloudy
3:30 PM 50.0 °F - 42.8 °F 76% 29.89 in 6.2 mi NW 16.1 mph - N/A   Overcast
4:00 PM 50.0 °F - 44.6 °F 82% 29.89 in 6.2 mi NW 15.0 mph - N/A   Overcast
4:30 PM 50.0 °F - 44.6 °F 82% 29.89 in 6.2 mi NW 13.8 mph - N/A   Mostly Cloudy
5:00 PM 48.2 °F - 44.6 °F 87% 29.86 in 6.2 mi NW 18.4 mph - N/A Rain Light Rain
5:30 PM 48.2 °F - 44.6 °F 87% 29.86 in 6.2 mi NW 13.8 mph - N/A   Mostly Cloudy
6:00 PM 48.2 °F - 44.6 °F 87% 29.86 in 6.2 mi WNW 16.1 mph - N/A   Overcast
6:30 PM 48.2 °F - 42.8 °F 82% 29.86 in 6.2 mi WNW 17.3 mph - N/A   Overcast
7:00 PM 48 °F - 44 °F 80% 29.89 in 16 mi WNW 15.7 mph - - Rain Light Rain
7:00 PM 48.2 °F - 44.6 °F 87% 29.86 in 6.2 mi WNW 16.1 mph - N/A   Mostly Cloudy
7:30 PM 46.4 °F 39.5 °F 44.6 °F 93% 29.86 in 6.2 mi WNW 17.3 mph 28.8 mph N/A   Overcast
8:00 PM 46.4 °F 40.1 °F 44.6 °F 93% 29.86 in 6.2 mi WNW 15.0 mph - N/A   Overcast
8:30 PM 46.4 °F 39.8 °F 44.6 °F 93% 29.86 in 6.2 mi WNW 16.1 mph - N/A Rain Light Rain
9:00 PM 46.4 °F 39.8 °F 44.6 °F 93% 29.86 in 6.2 mi West 16.1 mph - N/A   Mostly Cloudy
9:30 PM 46.4 °F 40.4 °F 44.6 °F 93% 29.89 in 6.2 mi WNW 13.8 mph - N/A Rain Light Rain
11:00 PM 46.4 °F 39.8 °F 46.4 °F 100% 29.86 in 5.6 mi WNW 16.1 mph - N/A Rain Light Rain
11:30 PM 46.4 °F 40.1 °F 46.4 °F 100% 29.89 in 5.6 mi WNW 15.0 mph - N/A   Light Drizzle